Time,TemperatureF,DewpointF,PressureIn,WindDirection,WindDirectionDegrees,WindSpeedMPH,WindSpeedGustMPH,Humidity,HourlyPrecipIn,Conditions,Clouds,dailyrainin,SoftwareType,DateUTC
2014-01-01 00:01:00,30.6,14.5,31.87,NNW,346,2.2,2.7,51,0.00,,,0.00,meteobridge,2014-01-01 05:01:00,
2014-01-01 00:02:00,30.4,14.4,31.87,NNW,346,2.7,3.1,51,0.00,,,0.00,meteobridge,2014-01-01 05:02:00,
2014-01-01 00:07:00,30.4,14.9,31.87,NNW,346,0.0,0.0,52,0.00,,,0.00,meteobridge,2014-01-01 05:07:00,
2014-01-01 00:12:00,30.2,14.7,31.87,NNW,346,3.6,3.6,52,0.00,,,0.00,meteobridge,2014-01-01 05:12:00,
2014-01-01 00:17:00,30.2,14.7,31.90,NNW,346,0.0,0.0,52,0.00,,,0.00,meteobridge,2014-01-01 05:17:00,
2014-01-01 00:22:00,30.0,14.5,31.90,NNW,346,0.0,3.1,52,0.00,,,0.00,meteobridge,2014-01-01 05:22:00,
2014-01-01 00:27:00,29.8,14.4,31.90,NNW,346,2.2,2.2,52,0.00,,,0.00,meteobridge,2014-01-01 05:27:00,
2014-01-01 00:32:00,30.0,14.5,31.90,NNW,346,0.0,0.0,52,0.00,,,0.00,meteobridge,2014-01-01 05:32:00,
2014-01-01 00:38:00,29.7,14.2,31.90,NNW,346,0.0,0.0,52,0.00,,,0.00,meteobridge,2014-01-01 05:38:00,
2014-01-01 00:41:00,29.7,14.5,31.90,NNW,346,0.0,0.0,53,0.00,,,0.00,meteobridge,2014-01-01 05:41:00,
2014-01-01 00:46:00,29.5,14.5,31.90,NNW,346,0.0,0.0,53,0.00,,,0.00,meteobridge,2014-01-01 05:46:00,
2014-01-01 00:52:00,29.5,14.5,31.90,NNW,346,0.0,0.0,53,0.00,,,0.00,meteobridge,2014-01-01 05:52:00,
2014-01-01 00:57:00,29.3,14.4,31.90,NNW,346,0.0,0.0,53,0.00,,,0.00,meteobridge,2014-01-01 05:57:00,
2014-01-01 01:02:00,29.3,14.4,31.90,NNW,346,0.0,0.0,53,0.00,,,0.00,meteobridge,2014-01-01 06:02:00,
2014-01-01 01:07:00,29.1,14.2,31.90,NNW,346,3.1,3.1,53,0.00,,,0.00,meteobridge,2014-01-01 06:07:00,
2014-01-01 01:12:00,28.9,14.0,31.90,East,92,3.6,3.6,53,0.00,,,0.00,meteobridge,2014-01-01 06:12:00,
2014-01-01 01:14:00,28.9,14.0,31.90,SE,130,3.1,4.0,53,0.00,,,0.00,meteobridge,2014-01-01 06:14:00,
2014-01-01 01:19:00,28.8,13.8,31.90,SE,139,2.7,3.6,53,0.00,,,0.00,meteobridge,2014-01-01 06:19:00,
2014-01-01 01:24:00,28.6,13.6,31.90,SE,137,2.2,2.2,53,0.00,,,0.00,meteobridge,2014-01-01 06:24:00,
2014-01-01 01:29:00,28.6,13.6,31.90,SE,137,0.0,0.0,53,0.00,,,0.00,meteobridge,2014-01-01 06:29:00,
2014-01-01 01:34:00,28.4,13.8,31.90,SE,137,2.2,3.1,54,0.00,,,0.00,meteobridge,2014-01-01 06:34:00,
2014-01-01 01:40:00,28.4,13.8,31.90,SE,137,0.0,0.0,54,0.00,,,0.00,meteobridge,2014-01-01 06:40:00,
2014-01-01 01:45:00,28.4,13.8,31.90,SE,137,0.0,0.0,54,0.00,,,0.00,meteobridge,2014-01-01 06:45:00,
2014-01-01 01:50:00,28.2,13.6,31.90,SE,137,2.7,2.7,54,0.00,,,0.00,meteobridge,2014-01-01 06:50:00,
2014-01-01 01:55:00,28.2,13.6,31.90,SE,137,2.2,3.1,54,0.00,,,0.00,meteobridge,2014-01-01 06:55:00,
2014-01-01 01:56:00,28.2,13.6,31.90,SE,137,3.1,3.1,54,0.00,,,0.00,meteobridge,2014-01-01 06:56:00,
2014-01-01 02:01:00,28.2,13.6,31.90,ESE,120,2.2,2.7,54,0.00,,,0.00,meteobridge,2014-01-01 07:01:00,
2014-01-01 02:06:00,28.0,13.5,31.90,ESE,120,2.7,2.7,54,0.00,,,0.00,meteobridge,2014-01-01 07:06:00,
2014-01-01 02:11:00,27.9,13.8,31.90,ESE,122,3.6,4.0,55,0.00,,,0.00,meteobridge,2014-01-01 07:11:00,
2014-01-01 02:16:00,27.9,13.8,31.90,SE,125,3.6,4.0,55,0.00,,,0.00,meteobridge,2014-01-01 07:16:00,
2014-01-01 02:21:00,27.9,13.8,31.90,SE,141,2.7,4.9,55,0.00,,,0.00,meteobridge,2014-01-01 07:21:00,
2014-01-01 02:23:00,27.9,13.8,31.90,SE,128,3.1,3.6,55,0.00,,,0.00,meteobridge,2014-01-01 07:23:00,
2014-01-01 02:28:00,27.7,13.6,31.90,SE,129,3.1,4.0,55,0.00,,,0.00,meteobridge,2014-01-01 07:28:00,
2014-01-01 02:33:00,27.7,13.6,31.90,SE,129,3.1,3.6,55,0.00,,,0.00,meteobridge,2014-01-01 07:33:00,
2014-01-01 02:38:00,27.5,13.5,31.90,SE,129,3.6,3.6,55,0.00,,,0.00,meteobridge,2014-01-01 07:38:00,
2014-01-01 02:43:00,27.5,13.5,31.90,SE,124,3.6,4.0,55,0.00,,,0.00,meteobridge,2014-01-01 07:43:00,
2014-01-01 02:48:00,27.5,13.5,31.90,ESE,123,4.0,4.0,55,0.00,,,0.00,meteobridge,2014-01-01 07:48:00,
2014-01-01 02:54:00,27.5,13.8,31.90,SE,131,3.6,3.6,56,0.00,,,0.00,meteobridge,2014-01-01 07:54:00,
2014-01-01 02:59:00,27.5,13.8,31.90,SE,126,3.1,3.6,56,0.00,,,0.00,meteobridge,2014-01-01 07:59:00,
2014-01-01 03:00:00,27.5,13.8,31.90,SE,126,3.1,3.6,56,0.00,,,0.00,meteobridge,2014-01-01 08:00:00,
2014-01-01 03:05:00,27.5,13.8,31.90,ESE,118,3.6,4.0,56,0.00,,,0.00,meteobridge,2014-01-01 08:05:00,
2014-01-01 03:11:00,27.3,13.6,31.90,SE,129,4.9,4.9,56,0.00,,,0.00,meteobridge,2014-01-01 08:11:00,
2014-01-01 03:16:00,27.3,13.6,31.90,SE,130,4.9,6.3,56,0.00,,,0.00,meteobridge,2014-01-01 08:16:00,
2014-01-01 03:21:00,27.1,13.5,31.90,SE,136,3.6,4.9,56,0.00,,,0.00,meteobridge,2014-01-01 08:21:00,
2014-01-01 03:26:00,27.0,13.3,31.90,SE,142,3.6,5.4,56,0.00,,,0.00,meteobridge,2014-01-01 08:26:00,
2014-01-01 03:30:00,27.0,13.3,31.90,SE,136,4.9,5.4,56,0.00,,,0.00,meteobridge,2014-01-01 08:30:00,
2014-01-01 03:35:00,26.8,13.1,31.90,SE,133,4.0,4.5,56,0.00,,,0.00,meteobridge,2014-01-01 08:35:00,
2014-01-01 03:40:00,26.8,13.6,31.90,SE,127,4.9,5.4,57,0.00,,,0.00,meteobridge,2014-01-01 08:40:00,
2014-01-01 03:45:00,26.8,13.6,31.90,SE,127,4.9,4.9,57,0.00,,,0.00,meteobridge,2014-01-01 08:45:00,
2014-01-01 03:50:00,26.8,13.6,31.90,SE,127,4.9,4.9,57,0.00,,,0.00,meteobridge,2014-01-01 08:50:00,
2014-01-01 03:55:00,26.8,13.6,31.90,SE,127,3.1,4.9,57,0.00,,,0.00,meteobridge,2014-01-01 08:55:00,
2014-01-01 04:00:00,26.8,13.6,31.90,SE,127,4.0,5.4,57,0.00,,,0.00,meteobridge,2014-01-01 09:00:00,
2014-01-01 04:05:00,27.0,14.2,31.90,ESE,123,3.1,4.9,58,0.00,,,0.00,meteobridge,2014-01-01 09:05:00,
2014-01-01 04:10:00,26.8,14.0,31.90,ESE,122,2.7,4.0,58,0.00,,,0.00,meteobridge,2014-01-01 09:10:00,
2014-01-01 04:15:00,26.8,14.0,31.90,ESE,122,3.1,3.1,58,0.00,,,0.00,meteobridge,2014-01-01 09:15:00,
2014-01-01 04:20:00,26.8,14.0,31.90,ESE,122,3.6,3.6,58,0.00,,,0.00,meteobridge,2014-01-01 09:20:00,
2014-01-01 04:25:00,26.8,14.0,31.90,ESE,122,2.7,3.1,58,0.00,,,0.00,meteobridge,2014-01-01 09:25:00,
2014-01-01 04:31:00,26.8,14.4,31.90,ESE,122,0.0,3.1,59,0.00,,,0.00,meteobridge,2014-01-01 09:31:00,
2014-01-01 04:36:00,26.8,14.4,31.90,ESE,122,2.2,3.1,59,0.00,,,0.00,meteobridge,2014-01-01 09:36:00,
2014-01-01 04:41:00,26.8,14.4,31.90,ESE,122,2.7,2.7,59,0.00,,,0.00,meteobridge,2014-01-01 09:41:00,
2014-01-01 04:46:00,26.6,14.2,31.90,ESE,122,2.2,2.7,59,0.00,,,0.00,meteobridge,2014-01-01 09:46:00,
2014-01-01 04:51:00,26.6,14.5,31.90,ESE,122,3.1,3.1,60,0.00,,,0.00,meteobridge,2014-01-01 09:51:00,
2014-01-01 04:56:00,26.4,14.4,31.90,ESE,122,3.6,4.9,60,0.00,,,0.00,meteobridge,2014-01-01 09:56:00,
2014-01-01 05:01:00,26.4,14.4,31.90,ESE,122,3.6,4.0,60,0.00,,,0.00,meteobridge,2014-01-01 10:01:00,
2014-01-01 05:06:00,26.2,14.2,31.90,ESE,122,4.0,4.0,60,0.00,,,0.00,meteobridge,2014-01-01 10:06:00,
2014-01-01 05:11:00,26.1,14.0,31.90,ESE,122,2.7,4.0,60,0.00,,,0.00,meteobridge,2014-01-01 10:11:00,
2014-01-01 05:16:00,26.1,14.0,31.84,ESE,122,2.7,4.0,60,0.00,,,0.00,meteobridge,2014-01-01 10:16:00,
2014-01-01 05:21:00,25.9,13.8,31.84,ESE,122,3.1,4.0,60,0.00,,,0.00,meteobridge,2014-01-01 10:21:00,
2014-01-01 05:26:00,25.7,13.8,31.84,ESE,122,3.6,4.0,60,0.00,,,0.00,meteobridge,2014-01-01 10:26:00,
2014-01-01 05:31:00,25.5,13.6,31.90,ESE,122,0.0,0.0,60,0.00,,,0.00,meteobridge,2014-01-01 10:31:00,
2014-01-01 05:36:00,25.5,13.6,31.90,ESE,122,3.1,3.6,60,0.00,,,0.00,meteobridge,2014-01-01 10:36:00,
2014-01-01 05:41:00,25.5,13.6,31.90,ESE,122,0.0,2.2,60,0.00,,,0.00,meteobridge,2014-01-01 10:41:00,
2014-01-01 05:47:00,25.3,13.5,31.84,ESE,122,0.0,0.0,60,0.00,,,0.00,meteobridge,2014-01-01 10:47:00,
2014-01-01 05:52:00,25.5,13.6,31.84,ESE,122,2.2,3.1,60,0.00,,,0.00,meteobridge,2014-01-01 10:52:00,
2014-01-01 05:57:00,25.3,13.8,31.84,ESE,122,2.7,3.1,61,0.00,,,0.00,meteobridge,2014-01-01 10:57:00,
2014-01-01 06:02:00,25.3,13.8,31.75,ESE,122,2.2,2.7,61,0.00,,,0.00,meteobridge,2014-01-01 11:02:00,
2014-01-01 06:07:00,25.3,13.8,31.75,ESE,122,2.7,3.1,61,0.00,,,0.00,meteobridge,2014-01-01 11:07:00,
2014-01-01 06:12:00,25.3,13.8,31.75,ESE,122,2.7,2.7,61,0.00,,,0.00,meteobridge,2014-01-01 11:12:00,
2014-01-01 06:17:00,25.3,14.2,31.75,ESE,122,2.2,2.7,62,0.00,,,0.00,meteobridge,2014-01-01 11:17:00,
2014-01-01 06:22:00,25.3,14.2,31.75,ESE,122,2.7,3.1,62,0.00,,,0.00,meteobridge,2014-01-01 11:22:00,
2014-01-01 06:27:00,25.3,14.2,31.75,ESE,122,3.1,3.1,62,0.00,,,0.00,meteobridge,2014-01-01 11:27:00,
2014-01-01 06:32:00,25.3,14.2,31.78,ESE,122,2.2,3.1,62,0.00,,,0.00,meteobridge,2014-01-01 11:32:00,
2014-01-01 06:37:00,25.2,14.4,31.78,ESE,122,2.7,3.1,63,0.00,,,0.00,meteobridge,2014-01-01 11:37:00,
2014-01-01 06:42:00,25.2,14.4,31.78,ESE,122,2.7,4.0,63,0.00,,,0.00,meteobridge,2014-01-01 11:42:00,
2014-01-01 06:47:00,25.0,14.2,31.72,ESE,122,4.0,4.0,63,0.00,,,0.00,meteobridge,2014-01-01 11:47:00,
2014-01-01 06:52:00,25.0,14.2,31.72,ESE,122,3.1,3.6,63,0.00,,,0.00,meteobridge,2014-01-01 11:52:00,
2014-01-01 06:58:00,25.0,14.2,31.72,ESE,122,3.1,4.0,63,0.00,,,0.00,meteobridge,2014-01-01 11:58:00,
2014-01-01 07:03:00,24.8,14.4,31.84,ESE,122,2.7,3.6,64,0.00,,,0.00,meteobridge,2014-01-01 12:03:00,
2014-01-01 07:08:00,24.8,14.4,31.84,ESE,122,4.0,4.0,64,0.00,,,0.00,meteobridge,2014-01-01 12:08:00,
2014-01-01 07:13:00,24.8,14.4,31.84,SE,131,4.0,4.9,64,0.00,,,0.00,meteobridge,2014-01-01 12:13:00,
2014-01-01 07:18:00,24.8,14.7,31.87,ESE,116,4.9,4.9,65,0.00,,,0.00,meteobridge,2014-01-01 12:18:00,
2014-01-01 07:23:00,24.8,14.7,31.87,ESE,119,3.1,4.0,65,0.00,,,0.00,meteobridge,2014-01-01 12:23:00,
2014-01-01 07:28:00,24.8,14.7,31.87,SE,127,4.9,4.9,65,0.00,,,0.00,meteobridge,2014-01-01 12:28:00,
2014-01-01 07:33:00,24.8,14.7,31.90,ESE,118,3.1,4.0,65,0.00,,,0.00,meteobridge,2014-01-01 12:33:00,
2014-01-01 07:38:00,24.8,15.1,31.90,ESE,117,2.7,4.0,66,0.00,,,0.00,meteobridge,2014-01-01 12:38:00,
2014-01-01 07:43:00,24.6,14.9,31.90,ESE,118,3.6,4.0,66,0.00,,,0.00,meteobridge,2014-01-01 12:43:00,
2014-01-01 07:48:00,24.6,14.9,31.90,ESE,118,4.0,4.0,66,0.00,,,0.00,meteobridge,2014-01-01 12:48:00,
2014-01-01 07:53:00,24.6,14.9,31.90,ESE,123,4.0,4.0,66,0.00,,,0.00,meteobridge,2014-01-01 12:53:00,
2014-01-01 07:58:00,24.6,15.3,31.90,ESE,123,3.6,4.0,67,0.00,,,0.00,meteobridge,2014-01-01 12:58:00,
2014-01-01 08:03:00,24.6,15.3,31.90,SE,126,4.0,4.0,67,0.00,,,0.00,meteobridge,2014-01-01 13:03:00,
2014-01-01 08:08:00,24.6,15.3,31.90,SE,124,2.7,4.5,67,0.00,,,0.00,meteobridge,2014-01-01 13:08:00,
2014-01-01 08:14:00,24.6,15.3,31.90,ESE,123,4.5,4.5,67,0.00,,,0.00,meteobridge,2014-01-01 13:14:00,
2014-01-01 08:19:00,24.6,15.6,31.90,ESE,123,3.1,4.0,68,0.00,,,0.00,meteobridge,2014-01-01 13:19:00,
2014-01-01 08:24:00,24.6,15.6,31.90,ESE,122,2.7,4.0,68,0.00,,,0.00,meteobridge,2014-01-01 13:24:00,
2014-01-01 08:29:00,24.6,15.6,31.90,SE,124,5.4,5.4,68,0.00,,,0.00,meteobridge,2014-01-01 13:29:00,
2014-01-01 08:34:00,24.6,16.0,31.90,SE,129,4.0,6.3,69,0.00,,,0.00,meteobridge,2014-01-01 13:34:00,
2014-01-01 08:39:00,24.8,16.2,31.90,SSE,160,4.9,6.3,69,0.00,,,0.00,meteobridge,2014-01-01 13:39:00,
2014-01-01 08:44:00,24.8,16.2,31.90,SE,136,5.4,6.3,69,0.00,,,0.00,meteobridge,2014-01-01 13:44:00,
2014-01-01 08:49:00,25.0,16.3,31.90,SE,132,3.1,4.0,69,0.00,,,0.00,meteobridge,2014-01-01 13:49:00,
2014-01-01 08:54:00,25.2,16.3,31.90,ESE,122,2.7,3.6,69,0.00,,,0.00,meteobridge,2014-01-01 13:54:00,
2014-01-01 08:59:00,25.3,16.9,31.90,SE,127,4.0,4.0,70,0.00,,,0.00,meteobridge,2014-01-01 13:59:00,
2014-01-01 09:04:00,25.5,17.1,31.90,SE,135,3.6,5.4,70,0.00,,,0.00,meteobridge,2014-01-01 14:04:00,
2014-01-01 09:09:00,25.9,17.8,31.90,SE,136,3.6,4.9,71,0.00,,,0.00,meteobridge,2014-01-01 14:09:00,
2014-01-01 09:14:00,26.1,18.0,31.90,SE,132,4.0,4.9,71,0.00,,,0.00,meteobridge,2014-01-01 14:14:00,
2014-01-01 09:19:00,26.2,18.5,31.90,SE,129,2.7,2.7,72,0.00,,,0.00,meteobridge,2014-01-01 14:19:00,
2014-01-01 09:24:00,26.6,18.9,31.90,SE,129,3.1,4.0,72,0.00,,,0.00,meteobridge,2014-01-01 14:24:00,
2014-01-01 09:30:00,26.8,19.0,31.90,SE,129,2.7,3.1,72,0.00,,,0.00,meteobridge,2014-01-01 14:30:00,
2014-01-01 09:35:00,27.3,19.8,31.90,ESE,122,3.6,5.8,73,0.00,,,0.00,meteobridge,2014-01-01 14:35:00,
2014-01-01 09:40:00,27.5,19.9,31.90,SSE,150,3.6,4.0,73,0.00,,,0.00,meteobridge,2014-01-01 14:40:00,
2014-01-01 09:45:00,27.9,20.7,31.90,ESE,104,2.7,3.6,74,0.00,,,0.00,meteobridge,2014-01-01 14:45:00,
2014-01-01 09:50:00,28.2,21.0,31.90,SE,136,4.0,6.3,74,0.00,,,0.00,meteobridge,2014-01-01 14:50:00,
2014-01-01 09:55:00,28.4,21.2,31.90,SE,135,3.6,4.0,74,0.00,,,0.00,meteobridge,2014-01-01 14:55:00,
2014-01-01 10:00:00,28.6,21.4,31.84,SE,135,4.0,4.9,74,0.00,,,0.00,meteobridge,2014-01-01 15:00:00,
2014-01-01 10:05:00,29.1,22.3,31.84,SSE,158,5.8,5.8,75,0.00,,,0.00,meteobridge,2014-01-01 15:05:00,
2014-01-01 10:10:00,29.5,22.5,31.84,SE,144,4.9,6.7,75,0.00,,,0.00,meteobridge,2014-01-01 15:10:00,
2014-01-01 10:15:00,30.2,23.2,31.78,SSE,153,4.0,5.8,75,0.00,,,0.00,meteobridge,2014-01-01 15:15:00,
2014-01-01 10:20:00,30.6,23.5,31.78,SSE,158,2.7,6.3,75,0.00,,,0.00,meteobridge,2014-01-01 15:20:00,
2014-01-01 10:25:00,31.3,24.3,31.78,South,175,5.8,6.7,75,0.00,,,0.00,meteobridge,2014-01-01 15:25:00,
2014-01-01 10:30:00,31.6,24.6,31.75,SSE,154,4.0,7.2,75,0.00,,,0.00,meteobridge,2014-01-01 15:30:00,
2014-01-01 10:35:00,32.2,25.2,31.75,South,171,8.3,8.7,75,0.00,,,0.00,meteobridge,2014-01-01 15:35:00,
2014-01-01 10:40:00,32.5,25.5,31.75,SSE,147,5.8,6.7,75,0.00,,,0.00,meteobridge,2014-01-01 15:40:00,
2014-01-01 10:46:00,32.9,25.9,31.72,South,180,10.1,10.1,75,0.00,,,0.00,meteobridge,2014-01-01 15:46:00,
2014-01-01 10:51:00,33.3,26.2,31.72,SSE,154,7.6,7.6,75,0.00,,,0.00,meteobridge,2014-01-01 15:51:00,
2014-01-01 10:56:00,33.6,26.6,31.72,South,186,8.1,8.1,75,0.00,,,0.00,meteobridge,2014-01-01 15:56:00,
2014-01-01 11:01:00,34.2,26.8,31.66,SSW,197,7.6,10.1,74,0.00,,,0.00,meteobridge,2014-01-01 16:01:00,
2014-01-01 11:06:00,34.7,27.0,31.66,SSW,204,5.8,7.6,73,0.00,,,0.00,meteobridge,2014-01-01 16:06:00,
2014-01-01 11:11:00,34.9,26.8,31.66,SSW,199,7.6,10.1,72,0.00,,,0.00,meteobridge,2014-01-01 16:11:00,
2014-01-01 11:16:00,34.9,26.4,31.63,SSW,210,5.8,8.3,71,0.00,,,0.00,meteobridge,2014-01-01 16:16:00,
2014-01-01 11:21:00,35.1,26.2,31.63,SSW,211,5.4,10.5,70,0.00,,,0.00,meteobridge,2014-01-01 16:21:00,
2014-01-01 11:26:00,35.1,25.9,31.63,South,173,8.1,8.1,69,0.00,,,0.00,meteobridge,2014-01-01 16:26:00,
2014-01-01 11:31:00,35.2,25.7,31.60,South,184,5.4,6.3,68,0.00,,,0.00,meteobridge,2014-01-01 16:31:00,
2014-01-01 11:36:00,35.4,25.9,31.60,SSW,211,5.4,8.1,68,0.00,,,0.00,meteobridge,2014-01-01 16:36:00,
2014-01-01 11:41:00,35.4,25.5,31.60,WSW,237,3.6,8.3,67,0.00,,,0.00,meteobridge,2014-01-01 16:41:00,
2014-01-01 11:46:00,35.6,25.3,31.60,South,185,5.8,8.3,66,0.00,,,0.00,meteobridge,2014-01-01 16:46:00,
2014-01-01 11:51:00,35.6,25.3,31.60,SW,234,4.0,7.6,66,0.00,,,0.00,meteobridge,2014-01-01 16:51:00,
2014-01-01 11:57:00,35.8,25.5,31.60,SSW,194,5.8,6.3,66,0.00,,,0.00,meteobridge,2014-01-01 16:57:00,
2014-01-01 12:02:00,36.0,25.3,31.60,SW,221,4.9,6.3,65,0.00,,,0.00,meteobridge,2014-01-01 17:02:00,
2014-01-01 12:07:00,36.1,25.5,31.60,WSW,239,5.8,7.6,65,0.00,,,0.00,meteobridge,2014-01-01 17:07:00,
2014-01-01 12:12:00,36.3,25.7,31.60,SW,216,3.1,5.8,65,0.00,,,0.00,meteobridge,2014-01-01 17:12:00,
2014-01-01 12:17:00,36.5,25.5,31.63,SW,216,3.1,5.4,64,0.00,,,0.00,meteobridge,2014-01-01 17:17:00,
2014-01-01 12:22:00,36.7,25.7,31.63,West,259,8.1,10.5,64,0.00,,,0.00,meteobridge,2014-01-01 17:22:00,
2014-01-01 12:27:00,37.0,25.7,31.63,WSW,244,8.1,8.1,63,0.00,,,0.00,meteobridge,2014-01-01 17:27:00,
2014-01-01 12:32:00,37.4,25.5,31.66,SSE,167,4.9,8.3,62,0.00,,,0.00,meteobridge,2014-01-01 17:32:00,
2014-01-01 12:37:00,37.6,25.7,31.66,South,186,6.3,6.3,62,0.00,,,0.00,meteobridge,2014-01-01 17:37:00,
2014-01-01 12:42:00,37.8,25.9,31.66,SW,236,5.4,5.8,62,0.00,,,0.00,meteobridge,2014-01-01 17:42:00,
2014-01-01 12:47:00,37.9,25.7,31.66,SW,232,5.8,6.3,61,0.00,,,0.00,meteobridge,2014-01-01 17:47:00,
2014-01-01 12:52:00,38.1,25.9,31.66,SW,229,8.1,8.7,61,0.00,,,0.00,meteobridge,2014-01-01 17:52:00,
2014-01-01 12:57:00,38.3,25.7,31.66,WSW,246,4.0,8.1,60,0.00,,,0.00,meteobridge,2014-01-01 17:57:00,
2014-01-01 13:02:00,38.5,25.9,31.66,SW,218,4.0,5.8,60,0.00,,,0.00,meteobridge,2014-01-01 18:02:00,
2014-01-01 13:07:00,38.8,25.7,31.66,SSW,203,7.6,8.3,59,0.00,,,0.00,meteobridge,2014-01-01 18:07:00,
2014-01-01 13:12:00,39.0,25.9,31.66,SSW,202,4.0,6.3,59,0.00,,,0.00,meteobridge,2014-01-01 18:12:00,
2014-01-01 13:17:00,39.4,25.9,31.66,SW,231,5.8,7.6,58,0.00,,,0.00,meteobridge,2014-01-01 18:17:00,
2014-01-01 13:23:00,39.7,26.2,31.66,South,188,6.3,6.3,58,0.00,,,0.00,meteobridge,2014-01-01 18:23:00,
2014-01-01 13:28:00,40.1,26.6,31.66,WSW,249,6.3,8.1,58,0.00,,,0.00,meteobridge,2014-01-01 18:28:00,
2014-01-01 13:33:00,40.3,26.2,31.63,West,266,7.6,7.6,57,0.00,,,0.00,meteobridge,2014-01-01 18:33:00,
2014-01-01 13:38:00,40.3,26.2,31.63,WSW,257,3.6,6.3,57,0.00,,,0.00,meteobridge,2014-01-01 18:38:00,
2014-01-01 13:43:00,40.3,25.9,31.63,WSW,238,3.6,6.3,56,0.00,,,0.00,meteobridge,2014-01-01 18:43:00,
2014-01-01 13:48:00,40.5,26.1,31.63,SSW,209,4.5,4.5,56,0.00,,,0.00,meteobridge,2014-01-01 18:48:00,
2014-01-01 13:53:00,40.6,26.2,31.63,West,274,3.1,4.0,56,0.00,,,0.00,meteobridge,2014-01-01 18:53:00,
2014-01-01 13:58:00,40.8,25.9,31.63,NNW,336,4.0,4.0,55,0.00,,,0.00,meteobridge,2014-01-01 18:58:00,
2014-01-01 14:03:00,40.8,25.9,31.60,North,3,3.1,3.1,55,0.00,,,0.00,meteobridge,2014-01-01 19:03:00,
2014-01-01 14:08:00,40.8,25.9,31.60,NW,312,3.1,5.4,55,0.00,,,0.00,meteobridge,2014-01-01 19:08:00,
2014-01-01 14:13:00,41.0,25.7,31.60,NNW,338,0.0,3.1,54,0.00,,,0.00,meteobridge,2014-01-01 19:13:00,
2014-01-01 14:18:00,41.4,26.4,31.57,NW,316,2.7,3.6,55,0.00,,,0.00,meteobridge,2014-01-01 19:18:00,
2014-01-01 14:23:00,41.2,26.2,31.57,NNW,346,0.0,3.6,55,0.00,,,0.00,meteobridge,2014-01-01 19:23:00,
2014-01-01 14:28:00,41.4,25.9,31.57,NNE,30,2.7,4.0,54,0.00,,,0.00,meteobridge,2014-01-01 19:28:00,
2014-01-01 14:33:00,41.5,26.1,31.54,NNE,30,2.2,3.1,54,0.00,,,0.00,meteobridge,2014-01-01 19:33:00,
2014-01-01 14:38:00,41.5,26.1,31.54,NNE,30,2.7,2.7,54,0.00,,,0.00,meteobridge,2014-01-01 19:38:00,
2014-01-01 14:43:00,41.5,26.1,31.54,WNW,287,0.0,4.9,54,0.00,,,0.00,meteobridge,2014-01-01 19:43:00,
2014-01-01 14:49:00,41.5,25.7,31.54,WNW,302,2.7,3.6,53,0.00,,,0.00,meteobridge,2014-01-01 19:49:00,
2014-01-01 14:54:00,41.7,25.9,31.54,WNW,300,2.7,3.6,53,0.00,,,0.00,meteobridge,2014-01-01 19:54:00,
2014-01-01 14:59:00,41.9,26.1,31.51,WNW,295,3.6,4.0,53,0.00,,,0.00,meteobridge,2014-01-01 19:59:00,
2014-01-01 15:04:00,41.9,26.1,31.51,WNW,295,0.0,3.1,53,0.00,,,0.00,meteobridge,2014-01-01 20:04:00,
2014-01-01 15:09:00,42.1,26.2,31.51,WNW,295,0.0,0.0,53,0.00,,,0.00,meteobridge,2014-01-01 20:09:00,
2014-01-01 15:14:00,42.3,26.4,31.28,WNW,295,0.0,0.0,53,0.00,,,0.00,meteobridge,2014-01-01 20:14:00,
2014-01-01 15:19:00,42.3,26.4,31.28,WNW,295,0.0,0.0,53,0.00,,,0.00,meteobridge,2014-01-01 20:19:00,
2014-01-01 15:24:00,42.4,26.6,31.28,WNW,295,0.0,0.0,53,0.00,,,0.00,meteobridge,2014-01-01 20:24:00,
2014-01-01 15:29:00,42.6,26.6,31.22,WNW,295,2.7,2.7,53,0.00,,,0.00,meteobridge,2014-01-01 20:29:00,
2014-01-01 15:34:00,42.8,26.4,31.22,WNW,295,0.0,0.0,52,0.00,,,0.00,meteobridge,2014-01-01 20:34:00,
2014-01-01 15:39:00,42.8,26.4,31.22,WNW,295,0.0,0.0,52,0.00,,,0.00,meteobridge,2014-01-01 20:39:00,
2014-01-01 15:44:00,42.6,26.2,31.22,WNW,295,2.7,3.6,52,0.00,,,0.00,meteobridge,2014-01-01 20:44:00,
2014-01-01 15:49:00,42.8,26.4,31.22,WNW,295,0.0,0.0,52,0.00,,,0.00,meteobridge,2014-01-01 20:49:00,
2014-01-01 15:54:00,42.8,26.4,31.22,WNW,295,0.0,0.0,52,0.00,,,0.00,meteobridge,2014-01-01 20:54:00,
2014-01-01 15:59:00,42.6,26.2,31.19,NNE,19,3.1,3.6,52,0.00,,,0.00,meteobridge,2014-01-01 20:59:00,
2014-01-01 16:04:00,42.4,26.1,31.19,NNE,19,0.0,2.2,52,0.00,,,0.00,meteobridge,2014-01-01 21:04:00,
2014-01-01 16:09:00,42.3,25.9,31.19,NNE,19,0.0,0.0,52,0.00,,,0.00,meteobridge,2014-01-01 21:09:00,
2014-01-01 16:15:00,42.3,25.9,31.19,NNE,19,0.0,0.0,52,0.00,,,0.00,meteobridge,2014-01-01 21:15:00,
2014-01-01 16:20:00,42.3,25.9,31.19,NNE,19,0.0,0.0,52,0.00,,,0.00,meteobridge,2014-01-01 21:20:00,
2014-01-01 16:25:00,42.1,25.7,31.19,NNE,19,0.0,0.0,52,0.00,,,0.00,meteobridge,2014-01-01 21:25:00,
2014-01-01 16:30:00,42.1,25.7,31.16,NNE,19,2.7,2.7,52,0.00,,,0.00,meteobridge,2014-01-01 21:30:00,
2014-01-01 16:35:00,42.1,25.7,31.16,ENE,58,2.7,2.7,52,0.00,,,0.00,meteobridge,2014-01-01 21:35:00,
2014-01-01 16:40:00,41.9,25.5,31.16,ENE,58,2.7,2.7,52,0.00,,,0.00,meteobridge,2014-01-01 21:40:00,
2014-01-01 16:45:00,41.9,25.5,31.16,ENE,58,3.1,3.1,52,0.00,,,0.00,meteobridge,2014-01-01 21:45:00,
2014-01-01 16:50:00,41.7,25.3,31.16,East,94,4.0,4.0,52,0.00,,,0.00,meteobridge,2014-01-01 21:50:00,
2014-01-01 16:55:00,41.5,25.2,31.16,ESE,102,3.1,4.0,52,0.00,,,0.00,meteobridge,2014-01-01 21:55:00,
2014-01-01 17:00:00,41.4,25.0,31.10,East,92,2.7,4.0,52,0.00,,,0.00,meteobridge,2014-01-01 22:00:00,
2014-01-01 17:05:00,41.2,24.8,31.10,ESE,110,2.7,2.7,52,0.00,,,0.00,meteobridge,2014-01-01 22:05:00,
2014-01-01 17:10:00,41.0,24.8,31.10,NE,55,3.6,3.6,52,0.00,,,0.00,meteobridge,2014-01-01 22:10:00,
2014-01-01 17:16:00,40.8,25.0,31.10,NE,56,2.2,2.2,53,0.00,,,0.00,meteobridge,2014-01-01 22:16:00,
2014-01-01 17:21:00,40.6,24.8,31.10,NE,56,2.2,3.1,53,0.00,,,0.00,meteobridge,2014-01-01 22:21:00,
2014-01-01 17:26:00,40.6,24.8,31.10,NE,56,3.1,4.0,53,0.00,,,0.00,meteobridge,2014-01-01 22:26:00,
2014-01-01 17:31:00,40.6,24.8,31.10,NE,56,2.2,3.1,53,0.00,,,0.00,meteobridge,2014-01-01 22:31:00,
2014-01-01 17:36:00,40.5,24.6,31.10,NE,56,0.0,0.0,53,0.00,,,0.00,meteobridge,2014-01-01 22:36:00,
2014-01-01 17:41:00,40.5,25.2,31.10,NE,56,0.0,0.0,54,0.00,,,0.00,meteobridge,2014-01-01 22:41:00,
2014-01-01 17:46:00,40.5,25.2,31.10,NE,56,0.0,0.0,54,0.00,,,0.00,meteobridge,2014-01-01 22:46:00,
2014-01-01 17:51:00,40.3,25.0,31.10,NE,56,0.0,0.0,54,0.00,,,0.00,meteobridge,2014-01-01 22:51:00,
2014-01-01 17:56:00,40.3,25.0,31.10,NE,56,0.0,0.0,54,0.00,,,0.00,meteobridge,2014-01-01 22:56:00,
2014-01-01 18:01:00,40.3,25.0,31.13,NE,56,0.0,0.0,54,0.00,,,0.00,meteobridge,2014-01-01 23:01:00,
2014-01-01 18:06:00,40.1,24.8,31.13,NE,56,0.0,0.0,54,0.00,,,0.00,meteobridge,2014-01-01 23:06:00,
2014-01-01 18:11:00,39.9,24.6,31.13,NE,56,0.0,0.0,54,0.00,,,0.00,meteobridge,2014-01-01 23:11:00,
2014-01-01 18:16:00,39.9,24.6,31.13,NE,56,0.0,0.0,54,0.00,,,0.00,meteobridge,2014-01-01 23:16:00,
2014-01-01 18:21:00,39.9,24.6,31.13,NE,56,0.0,0.0,54,0.00,,,0.00,meteobridge,2014-01-01 23:21:00,
2014-01-01 18:26:00,39.7,24.4,31.13,NE,56,0.0,0.0,54,0.00,,,0.00,meteobridge,2014-01-01 23:26:00,
2014-01-01 18:32:00,39.7,24.4,31.07,NE,56,0.0,0.0,54,0.00,,,0.00,meteobridge,2014-01-01 23:32:00,
2014-01-01 18:37:00,39.7,25.0,31.07,NE,56,0.0,0.0,55,0.00,,,0.00,meteobridge,2014-01-01 23:37:00,
2014-01-01 18:42:00,39.6,24.8,31.07,NE,56,0.0,0.0,55,0.00,,,0.00,meteobridge,2014-01-01 23:42:00,
2014-01-01 18:47:00,39.6,24.8,31.10,NE,56,0.0,0.0,55,0.00,,,0.00,meteobridge,2014-01-01 23:47:00,
2014-01-01 18:52:00,40.3,25.3,31.10,NE,56,0.0,0.0,55,0.00,,,0.00,meteobridge,2014-01-01 23:52:00,
2014-01-01 18:57:00,40.1,25.2,31.10,NE,56,0.0,0.0,55,0.00,,,0.00,meteobridge,2014-01-01 23:57:00,
2014-01-01 19:02:00,39.9,25.0,31.10,NE,56,0.0,0.0,55,0.00,,,0.00,meteobridge,2014-01-02 00:02:00,
2014-01-01 19:07:00,39.9,25.0,31.10,NE,56,0.0,0.0,55,0.00,,,0.00,meteobridge,2014-01-02 00:07:00,
2014-01-01 19:12:00,39.7,25.0,31.10,NE,56,2.2,2.2,55,0.00,,,0.00,meteobridge,2014-01-02 00:12:00,
2014-01-01 19:17:00,39.6,24.8,31.16,NE,56,0.0,0.0,55,0.00,,,0.00,meteobridge,2014-01-02 00:17:00,
2014-01-01 19:22:00,39.6,24.8,31.16,NE,56,3.1,3.1,55,0.00,,,0.00,meteobridge,2014-01-02 00:22:00,
2014-01-01 19:27:00,39.6,24.8,31.16,NE,56,0.0,0.0,55,0.00,,,0.00,meteobridge,2014-01-02 00:27:00,
2014-01-01 19:32:00,39.6,24.8,31.13,NE,56,0.0,0.0,55,0.00,,,0.00,meteobridge,2014-01-02 00:32:00,
2014-01-01 19:37:00,39.4,24.6,31.13,ENE,58,8.3,10.1,55,0.00,,,0.00,meteobridge,2014-01-02 00:37:00,
2014-01-01 19:43:00,38.8,24.1,31.13,NE,55,3.1,7.6,55,0.00,,,0.00,meteobridge,2014-01-02 00:43:00,
2014-01-01 19:48:00,38.3,23.5,31.13,NE,51,5.4,8.1,55,0.00,,,0.00,meteobridge,2014-01-02 00:48:00,
2014-01-01 19:53:00,37.8,23.5,31.13,North,9,4.0,8.7,56,0.00,,,0.00,meteobridge,2014-01-02 00:53:00,
2014-01-01 19:58:00,37.4,23.2,31.13,NE,50,3.1,4.0,56,0.00,,,0.00,meteobridge,2014-01-02 00:58:00,
2014-01-01 20:03:00,37.2,23.4,31.16,NNE,16,3.1,5.4,57,0.00,,,0.00,meteobridge,2014-01-02 01:03:00,
2014-01-01 20:08:00,36.9,23.0,31.16,NNE,18,6.3,6.3,57,0.00,,,0.00,meteobridge,2014-01-02 01:08:00,
2014-01-01 20:13:00,36.7,22.8,31.16,NE,36,6.3,8.1,57,0.00,,,0.00,meteobridge,2014-01-02 01:13:00,
2014-01-01 20:18:00,36.5,23.2,31.19,NE,49,6.3,8.1,58,0.00,,,0.00,meteobridge,2014-01-02 01:18:00,
2014-01-01 20:23:00,36.5,23.2,31.19,NNW,343,5.4,5.4,58,0.00,,,0.00,meteobridge,2014-01-02 01:23:00,
2014-01-01 20:28:00,36.1,22.8,31.19,NNW,338,4.0,6.3,58,0.00,,,0.00,meteobridge,2014-01-02 01:28:00,
2014-01-01 20:33:00,36.0,23.0,31.22,NNE,20,2.2,3.6,59,0.00,,,0.00,meteobridge,2014-01-02 01:33:00,
2014-01-01 20:38:00,35.8,22.8,31.22,NE,36,6.3,6.3,59,0.00,,,0.00,meteobridge,2014-01-02 01:38:00,
2014-01-01 20:43:00,35.8,22.8,31.22,NE,56,2.2,4.0,59,0.00,,,0.00,meteobridge,2014-01-02 01:43:00,
2014-01-01 20:49:00,36.0,23.4,31.22,NNE,22,3.6,4.9,60,0.00,,,0.00,meteobridge,2014-01-02 01:49:00,
2014-01-01 20:54:00,35.8,23.2,31.22,NNE,12,3.6,4.0,60,0.00,,,0.00,meteobridge,2014-01-02 01:54:00,
2014-01-01 20:59:00,35.8,23.2,31.22,NE,42,4.0,5.4,60,0.00,,,0.00,meteobridge,2014-01-02 01:59:00,
2014-01-01 21:04:00,35.8,23.2,31.16,NE,52,3.6,4.5,60,0.00,,,0.00,meteobridge,2014-01-02 02:04:00,
2014-01-01 21:09:00,35.6,23.0,31.16,NNE,25,5.4,5.4,60,0.00,,,0.00,meteobridge,2014-01-02 02:09:00,
2014-01-01 21:14:00,35.6,23.0,31.16,NNE,27,3.1,4.9,60,0.00,,,0.00,meteobridge,2014-01-02 02:14:00,
2014-01-01 21:19:00,35.4,23.4,31.16,NE,43,3.1,4.0,61,0.00,,,0.00,meteobridge,2014-01-02 02:19:00,
2014-01-01 21:24:00,35.2,23.2,31.16,North,4,3.1,3.6,61,0.00,,,0.00,meteobridge,2014-01-02 02:24:00,
2014-01-01 21:29:00,35.1,23.0,31.13,North,2,5.8,5.8,61,0.00,,,0.00,meteobridge,2014-01-02 02:29:00,
2014-01-01 21:34:00,34.9,22.8,31.13,NE,34,3.1,4.9,61,0.00,,,0.00,meteobridge,2014-01-02 02:34:00,
2014-01-01 21:39:00,34.9,23.2,31.13,NNE,15,3.6,4.9,62,0.00,,,0.00,meteobridge,2014-01-02 02:39:00,
2014-01-01 21:44:00,34.9,23.2,31.16,NE,53,3.6,4.0,62,0.00,,,0.00,meteobridge,2014-01-02 02:44:00,
2014-01-01 21:49:00,34.7,23.0,31.16,NE,54,2.7,4.0,62,0.00,,,0.00,meteobridge,2014-01-02 02:49:00,
2014-01-01 21:54:00,34.7,23.0,31.16,NE,36,3.1,8.3,62,0.00,,,0.00,meteobridge,2014-01-02 02:54:00,
2014-01-01 21:59:00,34.7,23.4,31.19,ENE,61,5.4,5.8,63,0.00,,,0.00,meteobridge,2014-01-02 02:59:00,
2014-01-01 22:04:00,34.5,23.2,31.19,NE,54,4.9,8.1,63,0.00,,,0.00,meteobridge,2014-01-02 03:04:00,
2014-01-01 22:09:00,34.3,23.0,31.19,ENE,65,6.3,8.1,63,0.00,,,0.00,meteobridge,2014-01-02 03:09:00,
2014-01-01 22:15:00,34.3,23.0,31.22,NE,47,4.0,7.6,63,0.00,,,0.00,meteobridge,2014-01-02 03:15:00,
2014-01-01 22:20:00,34.3,23.0,31.22,ENE,61,4.0,4.9,63,0.00,,,0.00,meteobridge,2014-01-02 03:20:00,
2014-01-01 22:25:00,34.3,23.4,31.22,NE,52,2.7,5.8,64,0.00,,,0.00,meteobridge,2014-01-02 03:25:00,
2014-01-01 22:30:00,34.3,23.4,31.25,ENE,77,5.4,6.3,64,0.00,,,0.00,meteobridge,2014-01-02 03:30:00,
2014-01-01 22:35:00,34.2,23.2,31.25,ENE,59,4.9,5.4,64,0.00,,,0.00,meteobridge,2014-01-02 03:35:00,
2014-01-01 22:40:00,34.2,23.2,31.25,ENE,70,3.6,4.0,64,0.00,,,0.00,meteobridge,2014-01-02 03:40:00,
2014-01-01 22:45:00,34.2,23.2,31.25,East,93,4.0,5.8,64,0.00,,,0.00,meteobridge,2014-01-02 03:45:00,
2014-01-01 22:50:00,34.2,23.2,31.25,East,79,4.9,5.8,64,0.00,,,0.00,meteobridge,2014-01-02 03:50:00,
2014-01-01 22:55:00,34.0,23.0,31.25,ENE,77,3.6,5.4,64,0.00,,,0.00,meteobridge,2014-01-02 03:55:00,
2014-01-01 23:00:00,34.0,23.0,31.30,East,90,2.7,5.8,64,0.00,,,0.00,meteobridge,2014-01-02 04:00:00,
2014-01-01 23:05:00,34.0,23.5,31.30,ENE,61,5.4,5.8,65,0.00,,,0.00,meteobridge,2014-01-02 04:05:00,
2014-01-01 23:10:00,34.0,23.5,31.30,NE,56,4.0,4.0,65,0.00,,,0.00,meteobridge,2014-01-02 04:10:00,
2014-01-01 23:15:00,34.0,23.5,31.36,NE,38,4.9,6.3,65,0.00,,,0.00,meteobridge,2014-01-02 04:15:00,
2014-01-01 23:20:00,33.8,23.4,31.36,NE,46,3.1,5.4,65,0.00,,,0.00,meteobridge,2014-01-02 04:20:00,
2014-01-01 23:25:00,33.8,23.4,31.36,NE,43,2.7,4.9,65,0.00,,,0.00,meteobridge,2014-01-02 04:25:00,
2014-01-01 23:30:00,34.0,23.5,31.39,NNE,32,3.1,3.1,65,0.00,,,0.00,meteobridge,2014-01-02 04:30:00,
2014-01-01 23:35:00,34.0,23.9,31.39,NE,50,2.7,3.1,66,0.00,,,0.00,meteobridge,2014-01-02 04:35:00,
2014-01-01 23:40:00,34.0,23.9,31.39,North,6,4.0,4.0,66,0.00,,,0.00,meteobridge,2014-01-02 04:40:00,
2014-01-01 23:45:00,34.0,23.9,31.45,NNE,22,3.1,5.8,66,0.00,,,0.00,meteobridge,2014-01-02 04:45:00,
2014-01-01 23:51:00,33.8,23.7,31.45,NNE,22,0.0,3.1,66,0.00,,,0.00,meteobridge,2014-01-02 04:51:00,
2014-01-01 23:56:00,34.0,23.9,31.45,NNE,22,0.0,0.0,66,0.00,,,0.00,meteobridge,2014-01-02 04:56:00,